C/2024 A1 ( ATLAS )

Japanese version
Home page
Updated on October 1, 2025

---------------------------------------------------------------------

* Profile

Discovery Date January 3, 2024
Magnitude 18.8 mag
Discoverer Asteroid Terrestrial-Impact Last Alert System (ATLAS) search program

* Pictures

* Orbital Elements

Epoch 2025 May 5.0 TT = JDT 2460800.5
T 2025 June 13.71797 TT                                 Pike
q   3.8752866            (2000.0)            P               Q
z  -0.0005585      Peri.  353.31301     -0.38263702     +0.02761388
 +/-0.0000010      Node   112.13675     +0.88712110     -0.26823152
e   1.0021644      Incl.   94.45698     +0.25807955     +0.96295863
From 1147 observations 2024 Jan. 3-2025 May 9, mean residual 0".5.

* Finding Charts

* Magnitudes Graph

        m1 = 9.0 + 5 log d + 7.0 log r

---------------------------------------------------------------------

The orbital elements are published on M.P.E.C. 2025-M120.
The charts are made with StellaNavigator Ver.11 (AstroArts).
The magnitudes graphs are made with Comet for Windows.

---------------------------------------------------------------------

Copyright(C) Seiichi Yoshida (comet@aerith.net). All rights reserved.